Regional Weather Roundup
Issued by NWS Kansas City/Pleasant Hill, MO

Home | Current Version | Previous Version | Graphics & Text | Print | Product List | Glossary Off
Versions: 1 2 3 4 5 6 7 8 9 10 11 12 13 14 15 16 17 18 19 20 21 22 23 24 25 26 27 28 29 30 31 32 33 34 35 36 37 38 39 40 41 42 43 44 45 46 47 48 49 50

000
ASUS43 KEAX 271410
RWREAX

WEATHER ROUNDUP FOR EASTERN KANSAS AND NORTHWEST MISSOURI
NATIONAL WEATHER SERVICE KANSAS CITY/PLEASANT HILL MO
900 AM CDT FRI MAY 27 2016

KSZ040-057-103>105-MOZ028-029-037-043-271500-
...KANSAS CITY METROPOLITAN AREA...

CITY           SKY/WX    TMP DP  RH WIND       PRES   REMARKS
K.C. INTL      CLOUDY    64  61  90 S10       29.73R
K.C. DOWNTOWN  MOSUNNY   67  62  84 S12       29.74R
LEES SUMMIT    CLOUDY    66  62  87 S13G21    29.75R
OLATHE - IXD   MOSUNNY   63  60  90 S8        29.76R
OLATHE - OJC   MOSUNNY   63  60  90 S9        29.75R
LAWRENCE       CLOUDY    62  60  93 S15G23    29.75R

$$

MOZ001>008-011>017-020>025-030>033-038>040-044>046-053-054-271500-
...NORTHERN AND CENTRAL MISSOURI...

CITY           SKY/WX    TMP DP  RH WIND       PRES   REMARKS
ST. JOSEPH     CLOUDY    66  62  87 SE9       29.70F
MOSBY          PTSUNNY   66  63  88 SE7       29.72F
WARRENSBURG    SUNNY     70  63  78 SE13      29.74F
WHITEMAN AFB   SUNNY     72  69  88 S14       29.75S
CLINTON        SUNNY     68  63  83 S8        29.78S
SEDALIA        MOSUNNY   73  68  84 S17       29.79S
WARSAW         NOT AVBL
CHILLICOTHE      N/A     70  67  90 S8        29.74R
KIRKSVILLE     LGT RAIN  72  67  84 S18G28    29.76F

$$

MOZ041-047>049-056>058-063>065-088>090-097-271500-
...EASTERN AND SOUTHERN MISSOURI...

CITY           SKY/WX    TMP DP  RH WIND       PRES   REMARKS
ST. LOUIS INTL LGT RAIN  70  66  88 SE14      29.89R
SPIRIT OF STL  LGT RAIN  69  66  90 E6        29.86F
COLUMBIA       CLOUDY    70  67  90 S14G23    29.83R
JEFFERSON CITY CLOUDY    71  67  87 SE12      29.83R
ROLLA          CLOUDY    68  66  93 SE12G21   29.84R
SPRINGFIELD    CLOUDY    72  66  81 S13       29.81F
BRANSON        CLOUDY    68  66  94 SE6       29.86R
JOPLIN         MOSUNNY   70  63  78 SE6       29.79F
WEST PLAINS    CLOUDY    70  66  87 S12       29.89R

$$

IAZ060-094-KSZ022-034>040-054-083-096-NEZ052-066-093-271500-
...KANSAS...SOUTHEAST NEBRASKA AND IOWA...

CITY           SKY/WX    TMP DP  RH WIND       PRES   REMARKS
TOPEKA         CLOUDY    62  60  93 S13       29.76R
MANHATTAN      CLOUDY    65  58  78 SE7       29.74R
EMPORIA        CLOUDY    60  58  92 SE14G22   29.75R
CHANUTE        CLOUDY    64  59  83 SE7       29.78R
WICHITA        CLOUDY    65  60  84 E16       29.70F
OMAHA          PTSUNNY   67  60  78 VRB5      29.76R
LINCOLN        CLOUDY    66  60  81 NE8       29.76R
FALLS CITY     MOSUNNY   66  61  84 NE7       29.72S
LAMONI         CLOUDY    62  61  96 E5        29.74F FOG
DES MOINES     CLOUDY    64  60  87 E3        29.77R

$$




USA.gov is the U.S. government's official web portal to all federal, state and local government web resources and services.